Tracking 35275 objects as of 8-Sep-2026
HD Live streaming from Space Station
objects crossing your sky now

SL-4 R/B


SL-4 R/B is no longer on orbit


NORAD ID: 11868
Int'l Code: 1980-055B
Launch date: June 29, 1980
Source: Commonwealth of Independent States (former USSR) (CIS)
Launch site: TYURATAM MISSILE AND SPACE COMPLEX (TTMTR)
Decay date: 1980-07-02

Note: This is a ROCKET BODY
Your satellite tracking list
Your tracking list is empty




NASA's NSSDC Master Catalog

Two Line Element Set (TLE):
1 11868U 80055  B 80184.19415917  .16516186 +58395-4 +12995-3 0  9997
2 11868 051.6053 340.8131 0013464 093.9831 266.2739 16.49443406000496
Source of the keplerian elements: AFSPC